TimeEDT,TemperatureF,Dew PointF,Humidity,Sea Level PressureIn,VisibilityMPH,Wind Direction,Wind SpeedMPH,Gust SpeedMPH,PrecipitationIn,Events,Conditions,WindDirDegrees,DateUTC
12:40 AM,42.8,42.8,100,29.71,1.5,Calm,Calm,-,N/A,,Overcast,0,2013-04-01 04:40:00
12:51 AM,43.0,42.1,97,29.70,1.2,West,5.8,-,N/A,,Mostly Cloudy,260,2013-04-01 04:51:00
12:54 AM,44.6,42.8,93,29.70,3.0,West,5.8,-,N/A,,Mostly Cloudy,260,2013-04-01 04:54:00
1:01 AM,42.8,42.8,100,29.70,6.0,West,4.6,-,N/A,,Scattered Clouds,270,2013-04-01 05:01:00
1:11 AM,39.2,39.2,100,29.69,1.8,SW,4.6,-,N/A,,Clear,230,2013-04-01 05:11:00
1:14 AM,39.2,39.2,100,29.69,0.8,SW,3.5,-,N/A,,Mist,230,2013-04-01 05:14:00
1:23 AM,37.4,37.4,100,29.69,0.2,WSW,5.8,-,N/A,Fog,Fog,240,2013-04-01 05:23:00
1:34 AM,37.4,37.4,100,29.69,0.5,SW,6.9,-,N/A,Fog,Fog,230,2013-04-01 05:34:00
1:51 AM,39.9,39.0,97,29.70,0.5,SW,6.9,-,N/A,Fog,Fog,220,2013-04-01 05:51:00
2:03 AM,39.2,39.2,100,29.71,1.5,SW,5.8,-,N/A,,Partly Cloudy,230,2013-04-01 06:03:00
2:19 AM,42.8,42.8,100,29.71,2.0,SW,8.1,-,N/A,,Mostly Cloudy,230,2013-04-01 06:19:00
2:33 AM,44.6,42.8,93,29.71,3.0,SW,11.5,-,N/A,,Overcast,230,2013-04-01 06:33:00
2:51 AM,44.1,43.0,96,29.73,4.0,WSW,10.4,-,N/A,,Overcast,250,2013-04-01 06:51:00
3:22 AM,42.8,42.8,100,29.71,4.0,SW,8.1,-,N/A,,Mostly Cloudy,230,2013-04-01 07:22:00
3:37 AM,44.6,42.8,93,29.71,4.0,West,9.2,-,N/A,,Mostly Cloudy,260,2013-04-01 07:37:00
3:51 AM,44.1,43.0,96,29.71,5.0,West,10.4,-,N/A,,Overcast,260,2013-04-01 07:51:00
4:51 AM,44.1,42.1,93,29.71,3.0,SW,5.8,-,N/A,,Overcast,230,2013-04-01 08:51:00
5:51 AM,43.0,42.1,97,29.71,2.5,SW,4.6,-,N/A,,Overcast,230,2013-04-01 09:51:00
6:03 AM,42.8,42.8,100,29.70,3.0,SW,8.1,-,N/A,,Overcast,220,2013-04-01 10:03:00
6:16 AM,42.8,42.8,100,29.70,2.5,SW,5.8,-,N/A,,Overcast,220,2013-04-01 10:16:00
6:51 AM,43.0,42.1,97,29.72,2.5,WSW,6.9,-,N/A,,Overcast,240,2013-04-01 10:51:00
7:05 AM,42.8,42.8,100,29.71,1.8,WSW,6.9,-,N/A,,Overcast,240,2013-04-01 11:05:00
7:28 AM,42.8,41.0,93,29.71,1.8,West,8.1,-,N/A,,Overcast,260,2013-04-01 11:28:00
7:51 AM,43.0,41.0,93,29.71,1.8,WSW,3.5,-,N/A,,Mostly Cloudy,240,2013-04-01 11:51:00
8:00 AM,42.8,42.8,100,29.71,1.8,West,3.5,-,N/A,,Scattered Clouds,260,2013-04-01 12:00:00
8:20 AM,44.6,42.8,93,29.70,2.0,WSW,6.9,-,N/A,,Clear,240,2013-04-01 12:20:00
8:51 AM,46.0,43.0,89,29.70,2.5,SW,4.6,-,N/A,,Clear,220,2013-04-01 12:51:00
9:36 AM,46.4,42.8,87,29.69,4.0,SW,5.8,-,N/A,,Clear,230,2013-04-01 13:36:00
9:51 AM,48.9,44.1,83,29.69,5.0,SW,8.1,-,N/A,,Haze,230,2013-04-01 13:51:00
10:51 AM,55.0,46.0,72,29.69,8.0,SW,12.7,-,N/A,,Clear,220,2013-04-01 14:51:00
11:51 AM,57.9,43.0,58,29.67,10.0,WSW,12.7,24.2,N/A,,Mostly Cloudy,250,2013-04-01 15:51:00
12:51 PM,55.0,37.9,53,29.69,10.0,West,15.0,27.6,N/A,,Mostly Cloudy,280,2013-04-01 16:51:00
1:51 PM,54.0,36.0,51,29.70,10.0,West,19.6,32.2,N/A,,Overcast,270,2013-04-01 17:51:00
2:51 PM,52.0,30.9,45,29.71,10.0,West,20.7,34.5,0.00,,Overcast,280,2013-04-01 18:51:00
3:51 PM,51.1,30.0,44,29.73,10.0,WNW,12.7,25.3,N/A,,Overcast,300,2013-04-01 19:51:00
4:51 PM,51.1,24.1,35,29.74,10.0,WNW,17.3,28.8,N/A,,Partly Cloudy,290,2013-04-01 20:51:00
5:51 PM,48.9,21.9,35,29.76,10.0,WNW,19.6,31.1,N/A,,Partly Cloudy,300,2013-04-01 21:51:00
6:51 PM,46.9,17.1,30,29.79,10.0,WNW,15.0,24.2,N/A,,Clear,290,2013-04-01 22:51:00
7:51 PM,44.1,12.9,28,29.83,10.0,WNW,8.1,-,N/A,,Partly Cloudy,290,2013-04-01 23:51:00
8:51 PM,41.0,16.0,36,29.87,10.0,NNW,9.2,19.6,N/A,,Clear,330,2013-04-02 00:51:00
9:51 PM,37.0,14.0,39,29.91,10.0,NNW,13.8,-,N/A,,Clear,340,2013-04-02 01:51:00
10:51 PM,36.0,12.9,39,29.94,10.0,NNW,8.1,-,N/A,,Clear,330,2013-04-02 02:51:00
11:51 PM,35.1,12.0,39,29.95,10.0,NW,8.1,-,N/A,,Clear,310,2013-04-02 03:51:00